    Orbital elements:
        C/2019 S4 (Lemmon)                                                          
    Epoch 2020 Apr. 21.0 TT = JDT 2458960.5                                         
    T 2020 Apr. 7.94405 TT                                  Rudenko                 
    q   3.4416962            (2000.0)            P               Q                  
    z  +0.0041600      Peri.   71.35586     +0.17416599     -0.41760502             
     +/-0.0000078      Node    63.16844     -0.12879824     -0.90750243             
    e   0.9856825      Incl.   92.02443     +0.97625674     -0.04522594             
    From 71 observations 2019 Sept. 17-2020 Feb. 20, mean residual 0".4.            
                                                                                    
        C/2019 S4 (Lemmon)                                                          
    Epoch 2020 May 31.0 TT = JDT 2459000.5                                          
    T 2020 Apr. 7.94618 TT                                  Rudenko                 
    q   3.4416990            (2000.0)            P               Q                  
    z  +0.0041808      Peri.   71.35644     +0.17416269     -0.41761500             
     +/-0.0000078      Node    63.16792     -0.12880818     -0.90749743             
    e   0.9856110      Incl.   92.02432     +0.97625602     -0.04523418             
    From 71 observations 2019 Sept. 17-2020 Feb. 20, mean residual 0".4.            
                                                                                    
    Ephemeris:
    Date    TT    R. A. (2000) Decl.     Delta      r    Elong.  Phase   m1    m2
    2020 02 27    23 20 26.8 +61 17 13   3.6641  3.4623    70.5    15.6  19.7
    ...
    2020 03 13    23 26 45.3 +62 16 02   3.7466  3.4500    65.2    15.2  19.7
    ...
    2020 03 21    23 30 16.2 +63 08 16   3.7782  3.4457    63.2    15.0  19.8
    ...
    2020 03 27    23 32 48.9 +63 56 34   3.7962  3.4435    62.1    14.8  19.8
    2020 03 28    23 33 13.4 +64 05 21   3.7987  3.4432    61.9    14.8  19.8
    2020 03 29    23 33 37.6 +64 14 21   3.8011  3.4429    61.8    14.8  19.8
    ...
    2020 04 04    23 35 53.7 +65 12 38   3.8124  3.4419    61.1    14.7  19.8
    ...
    2020 04 12    23 38 22.0 +66 41 24   3.8203  3.4419    60.7    14.7  19.8
    ...
    2020 04 27    23 40 02.5 +70 00 17   3.8148  3.4462    61.3    14.8  19.8
    
    M. P. C. Staff               (C) Copyright 2020 MPC           M.P.E.C. 2020-F168
    


    Read MPEC 2020-F167 Read MPEC 2020-F169


    MPEC number:

    Enter an MPEC number in one of the following forms:

    • 1997-B01 (the full form)
    • J97B01 (the packed version of the full form)
    • B01 (the abbreviated form)